Year,Month,Day,Hour,Minute,Value (Times are PST for temperature in C)
2019,10,29,00,00,6.80
2019,10,29,00,01,6.80
2019,10,29,00,02,6.80
2019,10,29,00,03,6.80
2019,10,29,00,04,6.80
2019,10,29,00,05,6.80
2019,10,29,00,06,6.80
2019,10,29,00,07,6.80
2019,10,29,00,08,6.80
2019,10,29,00,09,6.80
2019,10,29,00,10,6.80
2019,10,29,00,11,6.80
2019,10,29,00,12,6.70
2019,10,29,00,13,6.70
2019,10,29,00,14,6.70
2019,10,29,00,15,6.70
2019,10,29,00,16,6.70
2019,10,29,00,17,6.70
2019,10,29,00,18,6.70
2019,10,29,00,19,6.70
2019,10,29,00,20,6.70
2019,10,29,00,21,6.70
2019,10,29,00,22,6.70
2019,10,29,00,23,6.80
2019,10,29,00,24,6.80
2019,10,29,00,25,6.80
2019,10,29,00,26,6.90
2019,10,29,00,27,6.90
2019,10,29,00,28,6.90
2019,10,29,00,29,6.80
2019,10,29,00,30,6.80
2019,10,29,00,31,6.80
2019,10,29,00,32,6.80
2019,10,29,00,33,6.90
2019,10,29,00,34,6.90
2019,10,29,00,35,7.00
2019,10,29,00,36,7.00
2019,10,29,00,37,7.10
2019,10,29,00,38,7.20
2019,10,29,00,39,7.20
2019,10,29,00,40,7.30
2019,10,29,00,41,7.30
2019,10,29,00,42,7.40
2019,10,29,00,43,7.50
2019,10,29,00,44,7.60
2019,10,29,00,45,7.70
2019,10,29,00,46,7.70
2019,10,29,00,47,7.70
2019,10,29,00,48,7.70
2019,10,29,00,49,7.80
2019,10,29,00,50,7.80
2019,10,29,00,51,7.90
2019,10,29,00,52,7.90
2019,10,29,00,53,7.90
2019,10,29,00,54,7.90
2019,10,29,00,55,7.90
2019,10,29,00,56,7.90
2019,10,29,00,57,7.90
2019,10,29,00,58,7.80
2019,10,29,00,59,7.80
2019,10,29,01,00,7.80
2019,10,29,01,01,7.80
2019,10,29,01,02,7.70
2019,10,29,01,03,7.70
2019,10,29,01,04,7.70
2019,10,29,01,05,7.80
2019,10,29,01,06,7.80
2019,10,29,01,07,7.80
2019,10,29,01,08,7.90
2019,10,29,01,09,7.90
2019,10,29,01,10,7.90
2019,10,29,01,11,7.90
2019,10,29,01,12,7.90
2019,10,29,01,13,7.90
2019,10,29,01,14,7.90
2019,10,29,01,15,7.90
2019,10,29,01,16,7.90
2019,10,29,01,17,7.90
2019,10,29,01,18,7.80
2019,10,29,01,19,7.80
2019,10,29,01,20,7.80
2019,10,29,01,21,7.80
2019,10,29,01,22,7.70
2019,10,29,01,23,7.60
2019,10,29,01,24,7.60
2019,10,29,01,25,7.50
2019,10,29,01,26,7.50
2019,10,29,01,27,7.40
2019,10,29,01,28,7.40
2019,10,29,01,29,7.30
2019,10,29,01,30,7.40
2019,10,29,01,31,7.40
2019,10,29,01,32,7.40
2019,10,29,01,33,7.50
2019,10,29,01,34,7.50
2019,10,29,01,35,7.60
2019,10,29,01,36,7.60
2019,10,29,01,37,7.60
2019,10,29,01,38,7.50
2019,10,29,01,39,7.50
2019,10,29,01,40,7.50
2019,10,29,01,41,7.50
2019,10,29,01,42,7.60
2019,10,29,01,43,7.60
2019,10,29,01,44,7.60
2019,10,29,01,45,7.60
2019,10,29,01,46,7.60
2019,10,29,01,47,7.50
2019,10,29,01,48,7.50
2019,10,29,01,49,7.40
2019,10,29,01,50,7.40
2019,10,29,01,51,7.30
2019,10,29,01,52,7.30
2019,10,29,01,53,7.30
2019,10,29,01,54,7.30
2019,10,29,01,55,7.20
2019,10,29,01,56,7.20
2019,10,29,01,57,7.20
2019,10,29,01,58,7.20
2019,10,29,01,59,7.20
2019,10,29,02,00,7.20
2019,10,29,02,01,7.20
2019,10,29,02,02,7.20
2019,10,29,02,03,7.20
2019,10,29,02,04,7.20
2019,10,29,02,05,7.20
2019,10,29,02,06,7.30
2019,10,29,02,07,7.30
2019,10,29,02,08,7.40
2019,10,29,02,09,7.40
2019,10,29,02,10,7.50
2019,10,29,02,11,7.50
2019,10,29,02,12,7.50
2019,10,29,02,13,7.50
2019,10,29,02,14,7.50
2019,10,29,02,15,7.40
2019,10,29,02,16,7.40
2019,10,29,02,17,7.30
2019,10,29,02,18,7.30
2019,10,29,02,19,7.30
2019,10,29,02,20,7.30
2019,10,29,02,21,7.30
2019,10,29,02,22,7.30
2019,10,29,02,23,7.30
2019,10,29,02,24,7.30
2019,10,29,02,25,7.30
2019,10,29,02,26,7.30
2019,10,29,02,27,7.40
2019,10,29,02,28,7.40
2019,10,29,02,29,7.40
2019,10,29,02,30,7.40
2019,10,29,02,31,7.50
2019,10,29,02,32,7.50
2019,10,29,02,33,7.50
2019,10,29,02,34,7.50
2019,10,29,02,35,7.50
2019,10,29,02,36,7.60
2019,10,29,02,37,7.60
2019,10,29,02,38,7.60
2019,10,29,02,39,7.60
2019,10,29,02,40,7.60
2019,10,29,02,41,7.60
2019,10,29,02,42,7.60
2019,10,29,02,43,7.60
2019,10,29,02,44,7.60
2019,10,29,02,45,7.60
2019,10,29,02,46,7.60
2019,10,29,02,47,7.60
2019,10,29,02,48,7.60
2019,10,29,02,49,7.60
2019,10,29,02,50,7.60
2019,10,29,02,51,7.60
2019,10,29,02,52,7.60
2019,10,29,02,53,7.60
2019,10,29,02,54,7.60
2019,10,29,02,55,7.60
2019,10,29,02,56,7.60
2019,10,29,02,57,7.60
2019,10,29,02,58,7.60
2019,10,29,02,59,7.60
2019,10,29,03,00,7.60
2019,10,29,03,01,7.60
2019,10,29,03,02,7.50
2019,10,29,03,03,7.50
2019,10,29,03,04,7.40
2019,10,29,03,05,7.40
2019,10,29,03,06,7.30
2019,10,29,03,07,7.30
2019,10,29,03,08,7.30
2019,10,29,03,09,7.30
2019,10,29,03,10,7.30
2019,10,29,03,11,7.30
2019,10,29,03,12,7.30
2019,10,29,03,13,7.30
2019,10,29,03,14,7.30
2019,10,29,03,15,7.30
2019,10,29,03,16,7.20
2019,10,29,03,17,7.20
2019,10,29,03,18,7.20
2019,10,29,03,19,7.10
2019,10,29,03,20,7.10
2019,10,29,03,21,7.10
2019,10,29,03,22,7.00
2019,10,29,03,23,7.00
2019,10,29,03,24,7.00
2019,10,29,03,25,7.00
2019,10,29,03,26,6.90
2019,10,29,03,27,7.00
2019,10,29,03,28,7.00
2019,10,29,03,29,7.00
2019,10,29,03,30,7.00
2019,10,29,03,31,7.10
2019,10,29,03,32,7.10
2019,10,29,03,33,7.10
2019,10,29,03,34,7.20
2019,10,29,03,35,7.20
2019,10,29,03,36,7.20
2019,10,29,03,37,7.20
2019,10,29,03,38,7.30
2019,10,29,03,39,7.30
2019,10,29,03,40,7.30
2019,10,29,03,41,7.30
2019,10,29,03,42,7.30
2019,10,29,03,43,7.30
2019,10,29,03,44,7.30
2019,10,29,03,45,7.30
2019,10,29,03,46,7.30
2019,10,29,03,47,7.30
2019,10,29,03,48,7.20
2019,10,29,03,49,7.10
2019,10,29,03,50,7.10
2019,10,29,03,51,7.00
2019,10,29,03,52,7.00
2019,10,29,03,53,7.00
2019,10,29,03,54,6.90
2019,10,29,03,55,6.90
2019,10,29,03,56,6.90
2019,10,29,03,57,6.90
2019,10,29,03,58,6.90
2019,10,29,03,59,6.90
2019,10,29,04,00,6.90
2019,10,29,04,01,6.90
2019,10,29,04,02,6.80
2019,10,29,04,03,6.80
2019,10,29,04,04,6.80
2019,10,29,04,05,6.80
2019,10,29,04,06,6.80
2019,10,29,04,07,6.80
2019,10,29,04,08,6.70
2019,10,29,04,09,6.70
2019,10,29,04,10,6.70
2019,10,29,04,11,6.70
2019,10,29,04,12,6.60
2019,10,29,04,13,6.60
2019,10,29,04,14,6.60
2019,10,29,04,15,6.70
2019,10,29,04,16,6.70
2019,10,29,04,17,6.70
2019,10,29,04,18,6.70
2019,10,29,04,19,6.70
2019,10,29,04,20,6.70
2019,10,29,04,21,6.70
2019,10,29,04,22,6.70
2019,10,29,04,23,6.70
2019,10,29,04,24,6.70
2019,10,29,04,25,6.70
2019,10,29,04,26,6.70
2019,10,29,04,27,6.70
2019,10,29,04,28,6.70
2019,10,29,04,29,6.70
2019,10,29,04,30,6.70
2019,10,29,04,31,6.70
2019,10,29,04,32,6.70
2019,10,29,04,33,6.70
2019,10,29,04,34,6.70
2019,10,29,04,35,6.60
2019,10,29,04,36,6.60
2019,10,29,04,37,6.60
2019,10,29,04,38,6.60
2019,10,29,04,39,6.60
2019,10,29,04,40,6.50
2019,10,29,04,41,6.50
2019,10,29,04,42,6.40
2019,10,29,04,43,6.40
2019,10,29,04,44,6.40
2019,10,29,04,45,6.30
2019,10,29,04,46,6.30
2019,10,29,04,47,6.30
2019,10,29,04,48,6.30
2019,10,29,04,49,6.30
2019,10,29,04,50,6.30
2019,10,29,04,51,6.20
2019,10,29,04,52,6.20
2019,10,29,04,53,6.20
2019,10,29,04,54,6.30
2019,10,29,04,55,6.30
2019,10,29,04,56,6.20
2019,10,29,04,57,6.20
2019,10,29,04,58,6.20
2019,10,29,04,59,6.20
2019,10,29,05,00,6.20
2019,10,29,05,01,6.20
2019,10,29,05,02,6.20
2019,10,29,05,03,6.20
2019,10,29,05,04,6.20
2019,10,29,05,05,6.10
2019,10,29,05,06,6.10
2019,10,29,05,07,6.10
2019,10,29,05,08,6.20
2019,10,29,05,09,6.20
2019,10,29,05,10,6.20
2019,10,29,05,11,6.10
2019,10,29,05,12,6.10
2019,10,29,05,13,6.10
2019,10,29,05,14,6.10
2019,10,29,05,15,6.00
2019,10,29,05,16,6.00
2019,10,29,05,17,5.90
2019,10,29,05,18,5.90
2019,10,29,05,19,5.90
2019,10,29,05,20,5.90
2019,10,29,05,21,5.80
2019,10,29,05,22,5.80
2019,10,29,05,23,5.80
2019,10,29,05,24,5.80
2019,10,29,05,25,5.80
2019,10,29,05,26,5.70
2019,10,29,05,27,5.70
2019,10,29,05,28,5.70
2019,10,29,05,29,5.60
2019,10,29,05,30,5.60
2019,10,29,05,31,5.50
2019,10,29,05,32,5.60
2019,10,29,05,33,5.60
2019,10,29,05,34,5.60
2019,10,29,05,35,5.60
2019,10,29,05,36,5.60
2019,10,29,05,37,5.60
2019,10,29,05,38,5.70
2019,10,29,05,39,5.70
2019,10,29,05,40,5.70
2019,10,29,05,41,5.70
2019,10,29,05,42,5.70
2019,10,29,05,43,5.70
2019,10,29,05,44,5.80
2019,10,29,05,45,5.80
2019,10,29,05,46,5.80
2019,10,29,05,47,5.80
2019,10,29,05,48,5.80
2019,10,29,05,49,5.70
2019,10,29,05,50,5.70
2019,10,29,05,51,5.60
2019,10,29,05,52,5.60
2019,10,29,05,53,5.60
2019,10,29,05,54,5.60
2019,10,29,05,55,5.60
2019,10,29,05,56,5.60
2019,10,29,05,57,5.60
2019,10,29,05,58,5.60
2019,10,29,05,59,5.50
2019,10,29,06,00,5.50
2019,10,29,06,01,5.50
2019,10,29,06,02,5.50
2019,10,29,06,03,5.50
2019,10,29,06,04,5.40
2019,10,29,06,05,5.40
2019,10,29,06,06,5.40
2019,10,29,06,07,5.30
2019,10,29,06,08,5.30
2019,10,29,06,09,5.30
2019,10,29,06,10,5.20
2019,10,29,06,11,5.20
2019,10,29,06,12,5.20
2019,10,29,06,13,5.10
2019,10,29,06,14,5.10
2019,10,29,06,15,5.00
2019,10,29,06,16,5.00
2019,10,29,06,17,4.90
2019,10,29,06,18,4.90
2019,10,29,06,19,4.80
2019,10,29,06,20,4.80
2019,10,29,06,21,4.80
2019,10,29,06,22,4.80
2019,10,29,06,23,4.80
2019,10,29,06,24,4.90
2019,10,29,06,25,4.90
2019,10,29,06,26,5.00
2019,10,29,06,27,5.00
2019,10,29,06,28,5.00
2019,10,29,06,29,5.00
2019,10,29,06,30,5.00
2019,10,29,06,31,4.90
2019,10,29,06,32,4.90
2019,10,29,06,33,4.80
2019,10,29,06,34,4.80
2019,10,29,06,35,4.80
2019,10,29,06,36,4.70
2019,10,29,06,37,4.70
2019,10,29,06,38,4.60
2019,10,29,06,39,4.60
2019,10,29,06,40,4.60
2019,10,29,06,41,4.60
2019,10,29,06,42,4.60
2019,10,29,06,43,4.60
2019,10,29,06,44,4.60
2019,10,29,06,45,4.60
2019,10,29,06,46,4.60
2019,10,29,06,47,4.60
2019,10,29,06,48,4.50
2019,10,29,06,49,4.50
2019,10,29,06,50,4.50
2019,10,29,06,51,4.50
2019,10,29,06,52,4.50
2019,10,29,06,53,4.40
2019,10,29,06,54,4.40
2019,10,29,06,55,4.40
2019,10,29,06,56,4.40
2019,10,29,06,57,4.30
2019,10,29,06,58,4.30
2019,10,29,06,59,4.20
2019,10,29,07,00,4.20
2019,10,29,07,01,4.10
2019,10,29,07,02,4.10
2019,10,29,07,03,4.00
2019,10,29,07,04,4.00
2019,10,29,07,05,4.00
2019,10,29,07,06,3.90
2019,10,29,07,07,3.90
2019,10,29,07,08,3.90
2019,10,29,07,09,3.90
2019,10,29,07,10,3.80
2019,10,29,07,11,3.80
2019,10,29,07,12,3.80
2019,10,29,07,13,3.80
2019,10,29,07,14,3.70
2019,10,29,07,15,3.60
2019,10,29,07,16,3.60
2019,10,29,07,17,3.60
2019,10,29,07,18,3.50
2019,10,29,07,19,3.50
2019,10,29,07,20,3.40
2019,10,29,07,21,3.40
2019,10,29,07,22,3.30
2019,10,29,07,23,3.30
2019,10,29,07,24,3.20
2019,10,29,07,25,3.20
2019,10,29,07,26,3.20
2019,10,29,07,27,3.10
2019,10,29,07,28,3.10
2019,10,29,07,29,3.10
2019,10,29,07,30,3.00
2019,10,29,07,31,3.00
2019,10,29,07,32,2.90
2019,10,29,07,33,2.90
2019,10,29,07,34,2.90
2019,10,29,07,35,2.80
2019,10,29,07,36,2.80
2019,10,29,07,37,2.80
2019,10,29,07,38,2.80
2019,10,29,07,39,2.70
2019,10,29,07,40,2.70
2019,10,29,07,41,2.70
2019,10,29,07,42,2.70
2019,10,29,07,43,2.60
2019,10,29,07,44,2.60
2019,10,29,07,45,2.50
2019,10,29,07,46,2.50
2019,10,29,07,47,2.40
2019,10,29,07,48,2.40
2019,10,29,07,49,2.40
2019,10,29,07,50,2.40
2019,10,29,07,51,2.40
2019,10,29,07,52,2.40
2019,10,29,07,53,2.40
2019,10,29,07,54,2.40
2019,10,29,07,55,2.40
2019,10,29,07,56,2.40
2019,10,29,07,57,2.40
2019,10,29,07,58,2.30
2019,10,29,07,59,2.30
2019,10,29,08,00,2.30
2019,10,29,08,01,2.20
2019,10,29,08,02,2.20
2019,10,29,08,03,2.20
2019,10,29,08,04,2.20
2019,10,29,08,05,2.20
2019,10,29,08,06,2.10
2019,10,29,08,07,2.10
2019,10,29,08,08,2.10
2019,10,29,08,09,2.10
2019,10,29,08,10,2.10
2019,10,29,08,11,2.10
2019,10,29,08,12,2.10
2019,10,29,08,13,2.10
2019,10,29,08,14,2.10
2019,10,29,08,15,2.10
2019,10,29,08,16,2.10
2019,10,29,08,17,2.10
2019,10,29,08,18,2.10
2019,10,29,08,19,2.00
2019,10,29,08,20,2.00
2019,10,29,08,21,2.00
2019,10,29,08,22,2.00
2019,10,29,08,23,2.00
2019,10,29,08,24,2.00
2019,10,29,08,25,2.00
2019,10,29,08,26,2.00
2019,10,29,08,27,2.00
2019,10,29,08,28,2.00
2019,10,29,08,29,2.00
2019,10,29,08,30,2.10
2019,10,29,08,31,2.10
2019,10,29,08,32,2.10
2019,10,29,08,33,2.10
2019,10,29,08,34,2.10
2019,10,29,08,35,2.20
2019,10,29,08,36,2.20
2019,10,29,08,37,2.20
2019,10,29,08,38,2.20
2019,10,29,08,39,2.20
2019,10,29,08,40,2.20
2019,10,29,08,41,2.30
2019,10,29,08,42,2.40
2019,10,29,08,43,2.50
2019,10,29,08,44,2.60
2019,10,29,08,45,2.60
2019,10,29,08,46,2.60
2019,10,29,08,47,2.60
2019,10,29,08,48,2.60
2019,10,29,08,49,2.60
2019,10,29,08,50,2.60
2019,10,29,08,51,2.60
2019,10,29,08,52,2.60
2019,10,29,08,53,2.70
2019,10,29,08,54,2.70
2019,10,29,08,55,2.70
2019,10,29,08,56,2.70
2019,10,29,08,57,2.70
2019,10,29,08,58,2.70
2019,10,29,08,59,2.80
2019,10,29,09,00,2.80
2019,10,29,09,01,2.90
2019,10,29,09,02,2.90
2019,10,29,09,03,3.00
2019,10,29,09,04,3.00
2019,10,29,09,05,3.10
2019,10,29,09,06,3.20
2019,10,29,09,07,3.20
2019,10,29,09,08,3.30
2019,10,29,09,09,3.30
2019,10,29,09,10,3.40
2019,10,29,09,11,3.40
2019,10,29,09,12,3.50
2019,10,29,09,13,3.60
2019,10,29,09,14,3.70
2019,10,29,09,15,3.80
2019,10,29,09,16,3.80
2019,10,29,09,17,3.90
2019,10,29,09,18,4.00
2019,10,29,09,19,4.10
2019,10,29,09,20,4.10
2019,10,29,09,21,4.20
2019,10,29,09,22,4.40
2019,10,29,09,23,4.40
2019,10,29,09,24,4.50
2019,10,29,09,25,4.60
2019,10,29,09,26,4.60
2019,10,29,09,27,4.70
2019,10,29,09,28,4.70
2019,10,29,09,29,4.80
2019,10,29,09,30,4.90
2019,10,29,09,31,5.00
2019,10,29,09,32,5.10
2019,10,29,09,33,5.20
2019,10,29,09,34,5.40
2019,10,29,09,35,5.50
2019,10,29,09,36,5.60
2019,10,29,09,37,5.70
2019,10,29,09,38,5.80
2019,10,29,09,39,5.80
2019,10,29,09,40,5.90
2019,10,29,09,41,6.00
2019,10,29,09,42,6.10
2019,10,29,09,43,6.10
2019,10,29,09,44,6.20
2019,10,29,09,45,6.20
2019,10,29,09,46,6.30
2019,10,29,09,47,6.30
2019,10,29,09,48,6.30
2019,10,29,09,49,6.30
2019,10,29,09,50,6.30
2019,10,29,09,51,6.30
2019,10,29,09,52,6.40
2019,10,29,09,53,6.40
2019,10,29,09,54,6.40
2019,10,29,09,55,6.50
2019,10,29,09,56,6.50
2019,10,29,09,57,6.60
2019,10,29,09,58,6.60
2019,10,29,09,59,6.70
2019,10,29,10,00,6.70
2019,10,29,10,01,6.70
2019,10,29,10,02,6.70
2019,10,29,10,03,6.70
2019,10,29,10,04,6.70
2019,10,29,10,05,6.70
2019,10,29,10,06,6.70
2019,10,29,10,07,6.80
2019,10,29,10,08,6.80
2019,10,29,10,09,6.90
2019,10,29,10,10,6.90
2019,10,29,10,11,6.90
2019,10,29,10,12,6.90
2019,10,29,10,13,6.90
2019,10,29,10,14,6.90
2019,10,29,10,15,6.90
2019,10,29,10,16,6.90
2019,10,29,10,17,6.90
2019,10,29,10,18,6.90
2019,10,29,10,19,6.90
2019,10,29,10,20,6.90
2019,10,29,10,21,6.90
2019,10,29,10,22,7.00
2019,10,29,10,23,7.10
2019,10,29,10,24,7.10
2019,10,29,10,25,7.10
2019,10,29,10,26,7.10
2019,10,29,10,27,7.00
2019,10,29,10,28,7.00
2019,10,29,10,29,7.00
2019,10,29,10,30,6.90
2019,10,29,10,31,6.90
2019,10,29,10,32,6.90
2019,10,29,10,33,7.00
2019,10,29,10,34,7.00
2019,10,29,10,35,7.00
2019,10,29,10,36,7.10
2019,10,29,10,37,7.10
2019,10,29,10,38,7.10
2019,10,29,10,39,7.20
2019,10,29,10,40,7.20
2019,10,29,10,41,7.20
2019,10,29,10,42,7.20
2019,10,29,10,43,7.30
2019,10,29,10,44,7.30
2019,10,29,10,45,7.30
2019,10,29,10,46,7.30
2019,10,29,10,47,7.40
2019,10,29,10,48,7.40
2019,10,29,10,49,7.40
2019,10,29,10,50,7.40
2019,10,29,10,51,7.50
2019,10,29,10,52,7.50
2019,10,29,10,53,7.60
2019,10,29,10,54,7.60
2019,10,29,10,55,7.60
2019,10,29,10,56,7.60
2019,10,29,10,57,7.60
2019,10,29,10,58,7.50
2019,10,29,10,59,7.40
2019,10,29,11,00,7.30
2019,10,29,11,01,7.20
2019,10,29,11,02,7.10
2019,10,29,11,03,7.00
2019,10,29,11,04,7.00
2019,10,29,11,05,7.00
2019,10,29,11,06,7.00
2019,10,29,11,07,7.10
2019,10,29,11,08,7.10
2019,10,29,11,09,7.10
2019,10,29,11,10,7.20
2019,10,29,11,11,7.20
2019,10,29,11,12,7.30
2019,10,29,11,13,7.40
2019,10,29,11,14,7.50
2019,10,29,11,15,7.50
2019,10,29,11,16,7.50
2019,10,29,11,17,7.40
2019,10,29,11,18,7.50
2019,10,29,11,19,7.40
2019,10,29,11,20,7.50
2019,10,29,11,21,7.50
2019,10,29,11,22,7.50
2019,10,29,11,23,7.40
2019,10,29,11,24,7.50
2019,10,29,11,25,7.60
2019,10,29,11,26,7.70
2019,10,29,11,27,7.70
2019,10,29,11,28,7.70
2019,10,29,11,29,7.70
2019,10,29,11,30,7.70
2019,10,29,11,31,7.70
2019,10,29,11,32,7.70
2019,10,29,11,33,7.70
2019,10,29,11,34,7.70
2019,10,29,11,35,7.60
2019,10,29,11,36,7.50
2019,10,29,11,37,7.40
2019,10,29,11,38,7.30
2019,10,29,11,39,7.30
2019,10,29,11,40,7.20
2019,10,29,11,41,7.20
2019,10,29,11,42,7.20
2019,10,29,11,43,7.30
2019,10,29,11,44,7.40
2019,10,29,11,45,7.40
2019,10,29,11,46,7.40
2019,10,29,11,47,7.50
2019,10,29,11,48,7.60
2019,10,29,11,49,7.70
2019,10,29,11,50,7.80
2019,10,29,11,51,7.90
2019,10,29,11,52,7.90
2019,10,29,11,53,7.90
2019,10,29,11,54,8.00
2019,10,29,11,55,8.00
2019,10,29,11,56,7.90
2019,10,29,11,57,7.90
2019,10,29,11,58,7.90
2019,10,29,11,59,7.80
2019,10,29,12,00,7.80
2019,10,29,12,01,7.80
2019,10,29,12,02,7.80
2019,10,29,12,03,7.90
2019,10,29,12,04,7.90
2019,10,29,12,05,7.80
2019,10,29,12,06,7.90
2019,10,29,12,07,7.90
2019,10,29,12,08,7.90
2019,10,29,12,09,7.90
2019,10,29,12,10,7.90
2019,10,29,12,11,7.90
2019,10,29,12,12,7.90
2019,10,29,12,13,7.80
2019,10,29,12,14,7.70
2019,10,29,12,15,7.70
2019,10,29,12,16,7.60
2019,10,29,12,17,7.60
2019,10,29,12,18,7.60
2019,10,29,12,19,7.60
2019,10,29,12,20,7.70
2019,10,29,12,21,7.70
2019,10,29,12,22,7.70
2019,10,29,12,23,7.70
2019,10,29,12,24,7.70
2019,10,29,12,25,7.70
2019,10,29,12,26,7.80
2019,10,29,12,27,7.90
2019,10,29,12,28,8.10
2019,10,29,12,29,8.20
2019,10,29,12,30,8.30
2019,10,29,12,31,8.50
2019,10,29,12,32,8.60
2019,10,29,12,33,8.60
2019,10,29,12,34,8.50
2019,10,29,12,35,8.40
2019,10,29,12,36,8.30
2019,10,29,12,37,8.20
2019,10,29,12,38,8.20
2019,10,29,12,39,8.20
2019,10,29,12,40,8.20
2019,10,29,12,41,8.20
2019,10,29,12,42,8.20
2019,10,29,12,43,8.20
2019,10,29,12,44,8.20
2019,10,29,12,45,8.20
2019,10,29,12,46,8.20
2019,10,29,12,47,8.20
2019,10,29,12,48,8.20
2019,10,29,12,49,8.30
2019,10,29,12,50,8.40
2019,10,29,12,51,8.60
2019,10,29,12,52,8.60
2019,10,29,12,53,8.60
2019,10,29,12,54,8.60
2019,10,29,12,55,8.60
2019,10,29,12,56,8.50
2019,10,29,12,57,8.40
2019,10,29,12,58,8.30
2019,10,29,12,59,8.30
2019,10,29,13,00,8.30
2019,10,29,13,01,8.30
2019,10,29,13,02,8.40
2019,10,29,13,03,8.50
2019,10,29,13,04,8.60
2019,10,29,13,05,8.60
2019,10,29,13,06,8.60
2019,10,29,13,07,8.50
2019,10,29,13,08,8.50
2019,10,29,13,09,8.50
2019,10,29,13,10,8.50
2019,10,29,13,11,8.60
2019,10,29,13,12,8.60
2019,10,29,13,13,8.60
2019,10,29,13,14,8.60
2019,10,29,13,15,8.70
2019,10,29,13,16,8.70
2019,10,29,13,17,8.70
2019,10,29,13,18,8.70
2019,10,29,13,19,8.70
2019,10,29,13,20,8.70
2019,10,29,13,21,8.80
2019,10,29,13,22,8.80
2019,10,29,13,23,8.90
2019,10,29,13,24,8.90
2019,10,29,13,25,8.90
2019,10,29,13,26,8.90
2019,10,29,13,27,8.80
2019,10,29,13,28,8.80
2019,10,29,13,29,8.80
2019,10,29,13,30,8.80
2019,10,29,13,31,8.80
2019,10,29,13,32,8.70
2019,10,29,13,33,8.70
2019,10,29,13,34,8.60
2019,10,29,13,35,8.50
2019,10,29,13,36,8.40
2019,10,29,13,37,8.30
2019,10,29,13,38,8.30
2019,10,29,13,39,8.30
2019,10,29,13,40,8.30
2019,10,29,13,41,8.30
2019,10,29,13,42,8.30
2019,10,29,13,43,8.30
2019,10,29,13,44,8.30
2019,10,29,13,45,8.30
2019,10,29,13,46,8.30
2019,10,29,13,47,8.20
2019,10,29,13,48,8.30
2019,10,29,13,49,8.40
2019,10,29,13,50,8.50
2019,10,29,13,51,8.50
2019,10,29,13,52,8.60
2019,10,29,13,53,8.60
2019,10,29,13,54,8.60
2019,10,29,13,55,8.70
2019,10,29,13,56,8.70
2019,10,29,13,57,8.60
2019,10,29,13,58,8.60
2019,10,29,13,59,8.50
2019,10,29,14,00,8.50
2019,10,29,14,01,8.50
2019,10,29,14,02,8.60
2019,10,29,14,03,8.60
2019,10,29,14,04,8.70
2019,10,29,14,05,8.60
2019,10,29,14,06,8.70
2019,10,29,14,07,8.70
2019,10,29,14,08,8.70
2019,10,29,14,09,8.80
2019,10,29,14,10,8.80
2019,10,29,14,11,8.90
2019,10,29,14,12,8.90
2019,10,29,14,13,8.80
2019,10,29,14,14,8.80
2019,10,29,14,15,8.80
2019,10,29,14,16,8.90
2019,10,29,14,17,9.00
2019,10,29,14,18,9.00
2019,10,29,14,19,8.90
2019,10,29,14,20,8.90
2019,10,29,14,21,8.90
2019,10,29,14,22,8.90
2019,10,29,14,23,9.00
2019,10,29,14,24,9.10
2019,10,29,14,25,9.10
2019,10,29,14,26,9.10
2019,10,29,14,27,9.20
2019,10,29,14,28,9.30
2019,10,29,14,29,9.30
2019,10,29,14,30,9.30
2019,10,29,14,31,9.30
2019,10,29,14,32,9.30
2019,10,29,14,33,9.30
2019,10,29,14,34,9.30
2019,10,29,14,35,9.20
2019,10,29,14,36,9.10
2019,10,29,14,37,9.00
2019,10,29,14,38,8.90
2019,10,29,14,39,8.80
2019,10,29,14,40,8.80
2019,10,29,14,41,8.70
2019,10,29,14,42,8.60
2019,10,29,14,43,8.50
2019,10,29,14,44,8.40
2019,10,29,14,45,8.40
2019,10,29,14,46,8.50
2019,10,29,14,47,8.60
2019,10,29,14,48,8.60
2019,10,29,14,49,8.60
2019,10,29,14,50,8.70
2019,10,29,14,51,8.70
2019,10,29,14,52,8.80
2019,10,29,14,53,8.90
2019,10,29,14,54,9.00
2019,10,29,14,55,9.00
2019,10,29,14,56,9.10
2019,10,29,14,57,9.20
2019,10,29,14,58,9.20
2019,10,29,14,59,9.20
2019,10,29,15,00,9.20
2019,10,29,15,01,9.30
2019,10,29,15,02,9.30
2019,10,29,15,03,9.30
2019,10,29,15,04,9.30
2019,10,29,15,05,9.20
2019,10,29,15,06,9.20
2019,10,29,15,07,9.20
2019,10,29,15,08,9.20
2019,10,29,15,09,9.30
2019,10,29,15,10,9.30
2019,10,29,15,11,9.30
2019,10,29,15,12,9.30
2019,10,29,15,13,9.40
2019,10,29,15,14,9.30
2019,10,29,15,15,9.30
2019,10,29,15,16,9.30
2019,10,29,15,17,9.30
2019,10,29,15,18,9.40
2019,10,29,15,19,9.40
2019,10,29,15,20,9.40
2019,10,29,15,21,9.40
2019,10,29,15,22,9.40
2019,10,29,15,23,9.50
2019,10,29,15,24,9.50
2019,10,29,15,25,9.50
2019,10,29,15,26,9.50
2019,10,29,15,27,9.50
2019,10,29,15,28,9.50
2019,10,29,15,29,9.50
2019,10,29,15,30,9.50
2019,10,29,15,31,9.50
2019,10,29,15,32,9.50
2019,10,29,15,33,9.50
2019,10,29,15,34,9.50
2019,10,29,15,35,9.60
2019,10,29,15,36,9.60
2019,10,29,15,37,9.60
2019,10,29,15,38,9.50
2019,10,29,15,39,9.40
2019,10,29,15,40,9.40
2019,10,29,15,41,9.30
2019,10,29,15,42,9.30
2019,10,29,15,43,9.30
2019,10,29,15,44,9.30
2019,10,29,15,45,9.20
2019,10,29,15,46,9.20
2019,10,29,15,47,9.20
2019,10,29,15,48,9.20
2019,10,29,15,49,9.20
2019,10,29,15,50,9.20
2019,10,29,15,51,9.20
2019,10,29,15,52,9.20
2019,10,29,15,53,9.20
2019,10,29,15,54,9.20
2019,10,29,15,55,9.20
2019,10,29,15,56,9.10
2019,10,29,15,57,9.20
2019,10,29,15,58,9.20
2019,10,29,15,59,9.20
2019,10,29,16,00,9.30
2019,10,29,16,01,9.30
2019,10,29,16,02,9.40
2019,10,29,16,03,9.40
2019,10,29,16,04,9.30
2019,10,29,16,05,9.30
2019,10,29,16,06,9.30
2019,10,29,16,07,9.40
2019,10,29,16,08,9.50
2019,10,29,16,09,9.50
2019,10,29,16,10,9.50
2019,10,29,16,11,9.40
2019,10,29,16,12,9.40
2019,10,29,16,13,9.30
2019,10,29,16,14,9.30
2019,10,29,16,15,9.30
2019,10,29,16,16,9.30
2019,10,29,16,17,9.40
2019,10,29,16,18,9.40
2019,10,29,16,19,9.40
2019,10,29,16,20,9.40
2019,10,29,16,21,9.50
2019,10,29,16,22,9.40
2019,10,29,16,23,9.40
2019,10,29,16,24,9.40
2019,10,29,16,25,9.30
2019,10,29,16,26,9.20
2019,10,29,16,27,9.20
2019,10,29,16,28,9.10
2019,10,29,16,29,9.00
2019,10,29,16,30,8.90
2019,10,29,16,31,8.80
2019,10,29,16,32,8.80
2019,10,29,16,33,8.70
2019,10,29,16,34,8.80
2019,10,29,16,35,8.70
2019,10,29,16,36,8.70
2019,10,29,16,37,8.70
2019,10,29,16,38,8.70
2019,10,29,16,39,8.60
2019,10,29,16,40,8.60
2019,10,29,16,41,8.60
2019,10,29,16,42,8.60
2019,10,29,16,43,8.60
2019,10,29,16,44,8.60
2019,10,29,16,45,8.60
2019,10,29,16,46,8.60
2019,10,29,16,47,8.60
2019,10,29,16,48,8.60
2019,10,29,16,49,8.60
2019,10,29,16,50,8.60
2019,10,29,16,51,8.60
2019,10,29,16,52,8.60
2019,10,29,16,53,8.60
2019,10,29,16,54,8.60
2019,10,29,16,55,8.60
2019,10,29,16,56,8.50
2019,10,29,16,57,8.50
2019,10,29,16,58,8.40
2019,10,29,16,59,8.40
2019,10,29,17,00,8.40
2019,10,29,17,01,8.40
2019,10,29,17,02,8.40
2019,10,29,17,03,8.40
2019,10,29,17,04,8.30
2019,10,29,17,05,8.30
2019,10,29,17,06,8.30
2019,10,29,17,07,8.30
2019,10,29,17,08,8.30
2019,10,29,17,09,8.30
2019,10,29,17,10,8.30
2019,10,29,17,11,8.20
2019,10,29,17,12,8.20
2019,10,29,17,13,8.20
2019,10,29,17,14,8.20
2019,10,29,17,15,8.20
2019,10,29,17,16,8.20
2019,10,29,17,17,8.10
2019,10,29,17,18,8.10
2019,10,29,17,19,8.10
2019,10,29,17,20,8.00
2019,10,29,17,21,8.00
2019,10,29,17,22,8.00
2019,10,29,17,23,7.90
2019,10,29,17,24,7.90
2019,10,29,17,25,7.90
2019,10,29,17,26,7.90
2019,10,29,17,27,7.90
2019,10,29,17,28,7.80
2019,10,29,17,29,7.80
2019,10,29,17,30,7.80
2019,10,29,17,31,7.70
2019,10,29,17,32,7.70
2019,10,29,17,33,7.70
2019,10,29,17,34,7.60
2019,10,29,17,35,7.60
2019,10,29,17,36,7.60
2019,10,29,17,37,7.50
2019,10,29,17,38,7.50
2019,10,29,17,39,7.40
2019,10,29,17,40,7.40
2019,10,29,17,41,7.30
2019,10,29,17,42,7.30
2019,10,29,17,43,7.20
2019,10,29,17,44,7.20
2019,10,29,17,45,7.10
2019,10,29,17,46,7.10
2019,10,29,17,47,7.00
2019,10,29,17,48,7.00
2019,10,29,17,49,6.90
2019,10,29,17,50,6.90
2019,10,29,17,51,6.80
2019,10,29,17,52,6.80
2019,10,29,17,53,6.80
2019,10,29,17,54,6.70
2019,10,29,17,55,6.70
2019,10,29,17,56,6.60
2019,10,29,17,57,6.60
2019,10,29,17,58,6.50
2019,10,29,17,59,6.40
2019,10,29,18,00,6.30
2019,10,29,18,01,6.30
2019,10,29,18,02,6.20
2019,10,29,18,03,6.10
2019,10,29,18,04,6.10
2019,10,29,18,05,6.00
2019,10,29,18,06,6.00